Flag for U.S.A. Weather past 2 weeks in Springfield, Massachusetts, U.S.A.

Now
33 °F

Overcast.


Feels Like: 28 °F
Forecast: 22 / 36 °F
Wind: 6 mph from Northwest

Location: Barnes Municipal Airport

Current Time: Dec 19, 2014 at 8:44:53 AM

Latest Report: Dec 19, 2014 at 7:53 AM


Visibility: 10 mi

Pressure: 29.98 "Hg

Humidity: 58%

Dew point: 20 °F

Location of SpringfieldLocation

Historic Weather in Springfield — Graph

°F

Springfield temperature yesterday

Maximum temperature yesterday: 40 °F (at 1:53 AM)
Minimum temperature yesterday: 35 °F (at 8:53 PM)
Average temperature yesterday: 38 °F

Past Weeks' High & Low Weather Summary

 TemperatureHumidityPressure
High49 °F (Dec 17, 11:53 AM)93% (Dec 10, 3:53 AM)30.78 "Hg (Dec 10, 3:53 AM)
Low14 °F (Dec 8, 6:53 AM)37% (Dec 7, 12:53 PM)29.47 "Hg (Dec 10, 8:00 PM)
Average34 °F73%30.06 "Hg
* Reported Dec 4 7:53 AM — Dec 19 7:53 AM, Springfield, Weather by CustomWeather, © 2014

Note: Actual official high and low records may vary slightly from our data, if they occured in-between our weather recording intervals... More about our weather records

Advertising

Springfield weather history for previous 24 hours

 ConditionsComfort  
Time TempWeatherWind HumidityBarometerVisibility
7:53 AM
Dec 19
33 °FOvercast.6 mph58%29.98 "Hg10 mi
6:53 AM33 °FPassing clouds.10 mph58%29.96 "Hg10 mi
5:53 AM33 °FOvercast.16 mph61%29.94 "Hg10 mi
4:53 AM34 °FOvercast.14 mph56%29.93 "Hg10 mi
3:53 AM34 °FOvercast.10 mph61%29.93 "Hg10 mi
2:53 AM35 °FMostly cloudy.9 mph61%29.93 "Hg10 mi
1:53 AM35 °FMostly cloudy.12 mph64%29.93 "Hg10 mi
12:53 AM35 °FMostly cloudy.12 mph64%29.92 "Hg10 mi
11:53 PM
Dec 18
36 °FOvercast.8 mph62%29.92 "Hg10 mi
10:53 PM35 °FMostly cloudy.9 mph64%29.92 "Hg10 mi
9:53 PM35 °FOvercast.14 mph64%29.91 "Hg10 mi
8:53 PM35 °FPassing clouds.14 mph67%29.91 "Hg10 mi
7:53 PM36 °FOvercast.10 mph64%29.91 "Hg10 mi
6:53 PM37 °FPassing clouds.18 mph62%29.90 "Hg10 mi
5:53 PM37 °FMostly cloudy.15 mph62%29.90 "Hg10 mi
4:53 PM38 °FOvercast.8 mph60%29.90 "Hg10 mi
3:53 PM38 °FPartly sunny.10 mph63%29.88 "Hg10 mi
2:53 PM39 °FOvercast.13 mph57%29.86 "Hg10 mi
1:53 PM39 °FOvercast.15 mph60%29.86 "Hg10 mi
12:53 PM40 °FOvercast.13 mph58%29.85 "Hg10 mi
11:53 AM39 °FOvercast.13 mph60%29.87 "Hg10 mi
10:53 AM39 °FOvercast.10 mph60%29.88 "Hg10 mi
9:53 AM38 °FOvercast.17 mph63%29.89 "Hg10 mi
8:53 AM38 °FOvercast.13 mph63%29.87 "Hg10 mi
Weather by CustomWeather, © 2014

See weather overviewHow to use our weather pages